| time (UTC) | temp F | wind direction | speed MPH | gust MPH | rain 1hr in | rain 24hr in | rain mn in | humidity % | barometer mb |
| 20260507040309 | 77 | 260 | 2.0 | 4.0 | 0.00 | 0.00 | 0.00 | 24 | 1012.1 |
| 20260507035409 | 77 | 253 | 2.0 | 4.0 | 0.00 | 0.00 | 0.00 | 24 | 1011.8 |
| 20260507034509 | 76 | 264 | 2.0 | 6.0 | 0.00 | 0.00 | 0.00 | 24 | 1011.8 |
| 20260507033609 | 76 | 253 | 1.0 | 4.0 | 0.00 | 0.00 | 0.00 | 24 | 1011.7 |
| 20260507032709 | 77 | 252 | 1.0 | 3.0 | 0.00 | 0.00 | 0.00 | 24 | 1011.6 |
| 20260507030009 | 78 | 255 | 2.0 | 4.0 | 0.00 | 0.00 | 0.00 | 23 | 1011.2 |
| 20260507025109 | 79 | 249 | 2.0 | 5.0 | 0.00 | 0.00 | 0.00 | 23 | 1011.2 |
| 20260507024209 | 79 | 286 | 2.0 | 4.0 | 0.00 | 0.00 | 0.00 | 22 | 1011.0 |
| 20260507023309 | 80 | 287 | 3.0 | 6.0 | 0.00 | 0.00 | 0.00 | 21 | 1010.9 |
| 20260507022409 | 80 | 286 | 4.0 | 7.0 | 0.00 | 0.00 | 0.00 | 21 | 1010.9 |
| 20260507021510 | 81 | 285 | 4.0 | 7.0 | 0.00 | 0.00 | 0.00 | 20 | 1010.7 |
| 20260507020609 | 81 | 272 | 3.0 | 7.0 | 0.00 | 0.00 | 0.00 | 20 | 1010.7 |
| 20260507015709 | 81 | 257 | 2.0 | 8.0 | 0.00 | 0.00 | 0.00 | 19 | 1010.7 |
| 20260507014809 | 82 | 247 | 3.0 | 9.0 | 0.00 | 0.00 | 0.00 | 20 | 1010.7 |
| 20260507013009 | 83 | 269 | 3.0 | 9.0 | 0.00 | 0.00 | 0.00 | 19 | 1010.7 |
| 20260507012109 | 83 | 269 | 3.0 | 7.0 | 0.00 | 0.00 | 0.00 | 19 | 1010.7 |
| 20260507011209 | 83 | 236 | 3.0 | 6.0 | 0.00 | 0.00 | 0.00 | 19 | 1010.7 |
| 20260507010309 | 83 | 212 | 4.0 | 9.0 | 0.00 | 0.00 | 0.00 | 19 | 1010.7 |
| 20260507005409 | 84 | 229 | 3.0 | 12.0 | 0.00 | 0.00 | 0.00 | 19 | 1010.7 |
| 20260507003609 | 85 | 260 | 6.0 | 12.0 | 0.00 | 0.00 | 0.00 | 18 | 1010.6 |
| 20260507002709 | 85 | 264 | 6.0 | 13.0 | 0.00 | 0.00 | 0.00 | 18 | 1010.6 |
| 20260507001809 | 85 | 270 | 4.0 | 13.0 | 0.00 | 0.00 | 0.00 | 18 | 1010.5 |
| 20260507000909 | 85 | 262 | 6.0 | 9.0 | 0.00 | 0.00 | 0.00 | 18 | 1010.6 |
| 20260506235109 | 86 | 285 | 4.0 | 8.0 | 0.00 | 0.00 | 0.00 | 18 | 1010.6 |
| 20260506234209 | 86 | 281 | 4.0 | 10.0 | 0.00 | 0.00 | 0.00 | 18 | 1010.7 |
| 20260506233309 | 86 | 266 | 3.0 | 10.0 | 0.00 | 0.00 | 0.00 | 18 | 1010.8 |
| 20260506232409 | 85 | 236 | 3.0 | 7.0 | 0.00 | 0.00 | 0.00 | 19 | 1010.9 |
| 20260506231509 | 85 | 285 | 4.0 | 11.0 | 0.00 | 0.00 | 0.00 | 18 | 1011.0 |
| 20260506230609 | 85 | 213 | 2.0 | 7.0 | 0.00 | 0.00 | 0.00 | 18 | 1011.1 |
| 20260506225709 | 84 | 166 | 3.0 | 8.0 | 0.00 | 0.00 | 0.00 | 20 | 1011.1 |
| 20260506224809 | 84 | 196 | 4.0 | 8.0 | 0.00 | 0.00 | 0.00 | 19 | 1011.2 |
| 20260506223909 | 86 | 270 | 4.0 | 10.0 | 0.00 | 0.00 | 0.00 | 18 | 1011.3 |
| 20260506223010 | 86 | 292 | 5.0 | 10.0 | 0.00 | 0.00 | 0.00 | 18 | 1011.4 |
| 20260506222109 | 86 | 281 | 5.0 | 11.0 | 0.00 | 0.00 | 0.00 | 19 | 1011.5 |
| 20260506221209 | 86 | 304 | 4.0 | 15.0 | 0.00 | 0.00 | 0.00 | 19 | 1011.7 |
| 20260506220309 | 84 | 270 | 4.0 | 11.0 | 0.00 | 0.00 | 0.00 | 19 | 1011.8 |
| 20260506215409 | 84 | 264 | 3.0 | 14.0 | 0.00 | 0.00 | 0.00 | 19 | 1011.9 |
| 20260506214509 | 83 | 321 | 4.0 | 8.0 | 0.00 | 0.00 | 0.00 | 19 | 1012.0 |
| 20260506213609 | 84 | 314 | 6.0 | 10.0 | 0.00 | 0.00 | 0.00 | 19 | 1012.2 |
| 20260506212709 | 86 | 301 | 4.0 | 11.0 | 0.00 | 0.00 | 0.00 | 18 | 1012.3 |
| 20260506211808 | 84 | 68 | 2.0 | 8.0 | 0.00 | 0.00 | 0.00 | 19 | 1012.4 |
| 20260506210908 | 83 | 314 | 5.0 | 9.0 | 0.00 | 0.00 | 0.00 | 19 | 1012.7 |
| 20260506210009 | 83 | 317 | 6.0 | 19.0 | 0.00 | 0.00 | 0.00 | 19 | 1012.8 |
| 20260506205110 | 84 | 277 | 6.0 | 12.0 | 0.00 | 0.00 | 0.00 | 19 | 1012.9 |
| 20260506204209 | 85 | 248 | 4.0 | 13.0 | 0.00 | 0.00 | 0.00 | 19 | 1013.1 |
| 20260506203309 | 84 | 263 | 4.0 | 10.0 | 0.00 | 0.00 | 0.00 | 19 | 1013.2 |
| 20260506202409 | 82 | 299 | 5.0 | 11.0 | 0.00 | 0.00 | 0.00 | 20 | 1013.2 |
| 20260506200608 | 84 | 280 | 5.0 | 14.0 | 0.00 | 0.00 | 0.00 | 20 | 1013.4 |
| 20260506195709 | 83 | 260 | 3.0 | 7.0 | 0.00 | 0.00 | 0.00 | 21 | 1013.4 |
| 20260506194808 | 83 | 258 | 5.0 | 11.0 | 0.00 | 0.00 | 0.00 | 20 | 1013.6 |
| 20260506193908 | 83 | 246 | 4.0 | 11.0 | 0.00 | 0.00 | 0.00 | 21 | 1013.6 |
| 20260506192110 | 84 | 262 | 5.0 | 12.0 | 0.00 | 0.00 | 0.00 | 21 | 1013.9 |
| 20260506190308 | 81 | 313 | 3.0 | 11.0 | 0.00 | 0.00 | 0.00 | 22 | 1014.0 |
| 20260506185408 | 80 | 191 | 3.0 | 7.0 | 0.00 | 0.00 | 0.00 | 24 | 1014.1 |
| 20260506184509 | 80 | 182 | 3.0 | 7.0 | 0.00 | 0.00 | 0.00 | 24 | 1014.2 |
| 20260506183608 | 81 | 270 | 5.0 | 12.0 | 0.00 | 0.00 | 0.00 | 24 | 1014.4 |
| 20260506180908 | 79 | 190 | 2.0 | 8.0 | 0.00 | 0.00 | 0.00 | 26 | 1014.7 |
| 20260506175108 | 78 | 355 | 3.0 | 8.0 | 0.00 | 0.00 | 0.00 | 27 | 1014.8 |
| 20260506174208 | 78 | 303 | 3.0 | 8.0 | 0.00 | 0.00 | 0.00 | 27 | 1014.8 |
| 20260506173308 | 76 | 244 | 3.0 | 9.0 | 0.00 | 0.00 | 0.00 | 29 | 1014.9 |
| 20260506171509 | 76 | 253 | 3.0 | 7.0 | 0.00 | 0.00 | 0.00 | 28 | 1014.8 |
| 20260506170609 | 77 | 261 | 2.0 | 10.0 | 0.00 | 0.00 | 0.00 | 28 | 1014.8 |
| 20260506164809 | 74 | 303 | 3.0 | 6.0 | 0.00 | 0.00 | 0.00 | 29 | 1014.8 |
| 20260506163908 | 75 | 293 | 2.0 | 8.0 | 0.00 | 0.00 | 0.00 | 29 | 1014.7 |
| 20260506163008 | 74 | 172 | 3.0 | 8.0 | 0.00 | 0.00 | 0.00 | 32 | 1014.8 |
| 20260506161208 | 72 | 136 | 1.0 | 4.0 | 0.00 | 0.00 | 0.00 | 32 | 1014.7 |
| 20260506160308 | 72 | 165 | 2.0 | 4.0 | 0.00 | 0.00 | 0.00 | 33 | 1014.7 |
| 20260506152708 | 70 | 347 | 2.0 | 5.0 | 0.00 | 0.00 | 0.00 | 35 | 1014.9 |
| 20260506151808 | 70 | 73 | 2.0 | 4.0 | 0.00 | 0.00 | 0.00 | 35 | 1014.9 |
| 20260506150908 | 69 | 123 | 0.0 | 4.0 | 0.00 | 0.00 | 0.00 | 36 | 1014.9 |
| 20260506150008 | 68 | 146 | 0.0 | 1.0 | 0.00 | 0.00 | 0.00 | 38 | 1014.8 |
| 20260506145108 | 67 | 146 | 1.0 | 2.0 | 0.00 | 0.00 | 0.00 | 39 | 1014.7 |
| 20260506144208 | 66 | 146 | 1.0 | 3.0 | 0.00 | 0.00 | 0.00 | 40 | 1014.7 |
| 20260506143308 | 66 | 146 | 1.0 | 4.0 | 0.00 | 0.00 | 0.00 | 42 | 1014.6 |
| 20260506142408 | 65 | 147 | 1.0 | 4.0 | 0.00 | 0.00 | 0.00 | 43 | 1014.5 |
| 20260506141509 | 64 | 148 | 1.0 | 4.0 | 0.00 | 0.00 | 0.00 | 44 | 1014.4 |
| 20260506140608 | 64 | 145 | 1.0 | 4.0 | 0.00 | 0.00 | 0.00 | 44 | 1014.3 |
| 20260506135708 | 63 | 114 | 1.0 | 3.0 | 0.00 | 0.00 | 0.00 | 45 | 1014.2 |
| 20260506134808 | 62 | 160 | 2.0 | 6.0 | 0.00 | 0.00 | 0.00 | 45 | 1014.0 |
| 20260506133908 | 62 | 175 | 1.0 | 3.0 | 0.00 | 0.00 | 0.00 | 46 | 1013.9 |
| 20260506133008 | 61 | 175 | 0.0 | 3.0 | 0.00 | 0.00 | 0.00 | 48 | 1013.8 |
| 20260506131208 | 58 | 0 | 0.0 | 0.0 | 0.00 | 0.00 | 0.00 | 51 | 1013.6 |
| 20260506125408 | 57 | 0 | 0.0 | 0.0 | 0.00 | 0.00 | 0.00 | 52 | 1013.5 |
| 20260506124508 | 57 | 0 | 0.0 | 0.0 | 0.00 | 0.00 | 0.00 | 51 | 1013.4 |
| 20260506123608 | 57 | 0 | 0.0 | 0.0 | 0.00 | 0.00 | 0.00 | 50 | 1013.3 |
| 20260506121808 | 59 | 175 | 2.0 | 3.0 | 0.00 | 0.00 | 0.00 | 47 | 1013.0 |
| 20260506120908 | 59 | 174 | 1.0 | 3.0 | 0.00 | 0.00 | 0.00 | 46 | 1012.9 |
| 20260506120008 | 59 | 175 | 1.0 | 3.0 | 0.00 | 0.00 | 0.00 | 47 | 1012.9 |
| 20260506115108 | 60 | 175 | 2.0 | 3.0 | 0.00 | 0.00 | 0.00 | 45 | 1012.9 |
| 20260506114208 | 60 | 185 | 2.0 | 4.0 | 0.00 | 0.00 | 0.00 | 45 | 1012.9 |
| 20260506113308 | 61 | 195 | 1.0 | 4.0 | 0.00 | 0.00 | 0.00 | 45 | 1012.9 |
| 20260506112408 | 60 | 199 | 0.0 | 4.0 | 0.00 | 0.00 | 0.00 | 46 | 1012.8 |
| 20260506111508 | 60 | 0 | 0.0 | 0.0 | 0.00 | 0.00 | 0.00 | 48 | 1012.8 |
| 20260506110608 | 59 | 0 | 0.0 | 0.0 | 0.00 | 0.00 | 0.00 | 49 | 1012.7 |
| 20260506105708 | 59 | 0 | 0.0 | 0.0 | 0.00 | 0.00 | 0.00 | 49 | 1012.7 |
| 20260506103908 | 60 | 252 | 0.0 | 2.0 | 0.00 | 0.00 | 0.00 | 47 | 1012.6 |
| 20260506103008 | 60 | 252 | 1.0 | 2.0 | 0.00 | 0.00 | 0.00 | 46 | 1012.5 |
| 20260506102108 | 60 | 252 | 0.0 | 2.0 | 0.00 | 0.00 | 0.00 | 46 | 1012.4 |
| 20260506101208 | 60 | 0 | 0.0 | 0.0 | 0.00 | 0.00 | 0.00 | 47 | 1012.3 |
| 20260506100308 | 60 | 0 | 0.0 | 0.0 | 0.00 | 0.00 | 0.00 | 46 | 1012.2 |
| 20260506095408 | 60 | 0 | 0.0 | 0.0 | 0.00 | 0.00 | 0.00 | 46 | 1012.3 |
| 20260506094508 | 60 | 0 | 0.0 | 0.0 | 0.00 | 0.00 | 0.00 | 45 | 1012.2 |
| 20260506093608 | 61 | 252 | 0.0 | 1.0 | 0.00 | 0.00 | 0.00 | 45 | 1012.1 |
| 20260506092708 | 61 | 0 | 0.0 | 0.0 | 0.00 | 0.00 | 0.00 | 44 | 1012.1 |
| 20260506091808 | 61 | 0 | 0.0 | 0.0 | 0.00 | 0.00 | 0.00 | 44 | 1012.1 |
| 20260506090907 | 61 | 0 | 0.0 | 0.0 | 0.00 | 0.00 | 0.00 | 44 | 1012.1 |
| 20260506090007 | 62 | 0 | 0.0 | 0.0 | 0.00 | 0.00 | 0.00 | 42 | 1012.1 |
| 20260506085107 | 63 | 252 | 1.0 | 2.0 | 0.00 | 0.00 | 0.00 | 41 | 1012.0 |
| 20260506084207 | 64 | 250 | 3.0 | 5.0 | 0.00 | 0.00 | 0.00 | 40 | 1012.1 |
| 20260506082407 | 64 | 251 | 2.0 | 6.0 | 0.00 | 0.00 | 0.00 | 40 | 1011.9 |
| 20260506080607 | 63 | 276 | 1.0 | 4.0 | 0.00 | 0.00 | 0.00 | 40 | 1011.9 |
| 20260506073008 | 63 | 278 | 0.0 | 2.0 | 0.00 | 0.00 | 0.00 | 38 | 1011.8 |
| 20260506072109 | 64 | 278 | 0.0 | 2.0 | 0.00 | 0.00 | 0.00 | 37 | 1011.7 |
| 20260506071207 | 64 | 0 | 0.0 | 0.0 | 0.00 | 0.00 | 0.00 | 38 | 1011.7 |
| 20260506070308 | 64 | 0 | 0.0 | 0.0 | 0.00 | 0.00 | 0.00 | 37 | 1011.7 |
| 20260506061807 | 64 | 280 | 0.0 | 1.0 | 0.00 | 0.00 | 0.00 | 36 | 1011.4 |
| 20260506060907 | 64 | 280 | 0.0 | 1.0 | 0.00 | 0.00 | 0.00 | 36 | 1011.3 |
| 20260506050607 | 68 | 274 | 4.0 | 8.0 | 0.00 | 0.00 | 0.00 | 31 | 1011.0 |
| 20260506043907 | 69 | 254 | 4.0 | 8.0 | 0.00 | 0.00 | 0.00 | 30 | 1010.6 |
| 20260506043007 | 70 | 255 | 3.0 | 7.0 | 0.00 | 0.00 | 0.00 | 30 | 1010.7 |
| 20260506042107 | 69 | 255 | 4.0 | 6.0 | 0.00 | 0.00 | 0.00 | 30 | 1010.6 |
| 20260506041207 | 70 | 251 | 3.0 | 9.0 | 0.00 | 0.00 | 0.00 | 30 | 1010.5 |